• In Deutschland
  • Länderverzeichnis
  • Für 7 Tage
  • Wassertemperatur
  • Satellitenkarten
  • Wetterkarte
  • Widgets
  • user-avatar
    Anmelden

    Stündliche Wetter San Juan

    Heute, 26 September, Dienstag

    Zeit Temperatur Niederschläge Wind Luftdruck Luftfeuchtigkeit
    00:00 +20°C° 0 mm 3 m/S 706 mmHg 63%
    01:00 +20°C° 0 mm 3 m/S 706 mmHg 64%
    02:00 +19°C° 0 mm 3 m/S 706 mmHg 63%
    03:00 +19°C° 0 mm 3 m/S 706 mmHg 63%
    04:00 +18°C° 0 mm 2 m/S 705 mmHg 62%
    05:00 +18°C° 0 mm 3 m/S 705 mmHg 59%
    06:00 +19°C° 0 mm 3 m/S 706 mmHg 55%
    07:00 +19°C° 0 mm 3 m/S 706 mmHg 52%
    08:00 +20°C° 0 mm 4 m/S 706 mmHg 50%
    09:00 +21°C° 0 mm 4 m/S 705 mmHg 48%
    10:00 +22°C° 0 mm 5 m/S 705 mmHg 45%
    11:00 +22°C° 0 mm 6 m/S 705 mmHg 47%
    12:00 +22°C° 0 mm 6 m/S 705 mmHg 49%
    13:00 +22°C° 0 mm 7 m/S 704 mmHg 51%
    14:00 +21°C° 0 mm 7 m/S 704 mmHg 55%
    15:00 +20°C° 0 mm 8 m/S 704 mmHg 59%
    16:00 +18°C° 0 mm 8 m/S 704 mmHg 63%
    17:00 +16°C° 0 mm 7 m/S 705 mmHg 67%
    18:00 +15°C° 0 mm 7 m/S 706 mmHg 70%
    19:00 +14°C° 0 mm 6 m/S 707 mmHg 73%
    20:00 +14°C° 0 mm 6 m/S 707 mmHg 74%
    21:00 +13°C° 0 mm 6 m/S 707 mmHg 76%
    22:00 +13°C° 0 mm 6 m/S 707 mmHg 77%
    23:00 +11°C° 0 mm 6 m/S 707 mmHg 77%

    Morgen, 27 September, Mittwoch

    Zeit Temperatur Niederschläge Wind Luftdruck Luftfeuchtigkeit
    00:00 +11°C° 0 mm 6 m/S 707 mmHg 77%
    01:00 +12°C° 0 mm 5 m/S 707 mmHg 78%
    02:00 +10°C° 0 mm 5 m/S 707 mmHg 78%
    03:00 +10°C° 0 mm 5 m/S 707 mmHg 78%
    04:00 +10°C° 0 mm 5 m/S 707 mmHg 78%
    05:00 +10°C° 0 mm 5 m/S 708 mmHg 77%
    06:00 +11°C° 0 mm 4 m/S 708 mmHg 76%
    07:00 +11°C° 0 mm 4 m/S 708 mmHg 75%
    08:00 +13°C° 0 mm 4 m/S 708 mmHg 69%
    09:00 +14°C° 0 mm 4 m/S 708 mmHg 63%
    10:00 +15°C° 0 mm 4 m/S 708 mmHg 57%
    11:00 +17°C° 0 mm 4 m/S 707 mmHg 53%
    12:00 +18°C° 0 mm 4 m/S 706 mmHg 50%
    13:00 +20°C° 0 mm 4 m/S 705 mmHg 46%
    14:00 +20°C° 0 mm 4 m/S 705 mmHg 46%
    15:00 +20°C° 0 mm 4 m/S 705 mmHg 46%
    16:00 +20°C° 0 mm 4 m/S 705 mmHg 46%
    17:00 +19°C° 0 mm 4 m/S 705 mmHg 50%
    18:00 +18°C° 0 mm 4 m/S 706 mmHg 53%
    19:00 +17°C° 0 mm 3 m/S 706 mmHg 57%
    20:00 +17°C° 0 mm 3 m/S 706 mmHg 58%
    21:00 +17°C° 0 mm 3 m/S 707 mmHg 59%
    22:00 +17°C° 0 mm 3 m/S 707 mmHg 60%
    23:00 +16°C° 0 mm 2 m/S 707 mmHg 61%

    übermorgen, 28 September, Donnerstag

    Zeit Temperatur Niederschläge Wind Luftdruck Luftfeuchtigkeit
    00:00 +16°C° 0 mm 2 m/S 706 mmHg 63%
    01:00 +16°C° 0 mm 2 m/S 706 mmHg 64%
    02:00 +15°C° 0 mm 2 m/S 706 mmHg 65%
    03:00 +15°C° 0 mm 1 m/S 705 mmHg 66%
    04:00 +15°C° 0 mm 1 m/S 705 mmHg 67%
    05:00 +15°C° 0 mm 1 m/S 706 mmHg 65%
    06:00 +16°C° 0 mm 1 m/S 706 mmHg 62%
    07:00 +16°C° 0 mm 1 m/S 707 mmHg 60%
    08:00 +19°C° 0 mm 1 m/S 706 mmHg 55%
    09:00 +20°C° 0 mm 1 m/S 706 mmHg 50%
    10:00 +21°C° 0 mm 1 m/S 706 mmHg 46%
    11:00 +23°C° 0 mm 1 m/S 705 mmHg 42%
    12:00 +24°C° 0 mm 2 m/S 705 mmHg 38%
    13:00 +25°C° 0 mm 2 m/S 704 mmHg 35%
    14:00 +25°C° 0 mm 2 m/S 704 mmHg 35%
    15:00 +26°C° 0 mm 3 m/S 704 mmHg 35%
    16:00 +26°C° 0 mm 3 m/S 703 mmHg 35%
    17:00 +25°C° 0,1 mm 3 m/S 704 mmHg 39%
    18:00 +24°C° 0,1 mm 3 m/S 705 mmHg 43%
    19:00 +22°C° 0,1 mm 3 m/S 705 mmHg 47%
    20:00 +21°C° 0,1 mm 2 m/S 706 mmHg 49%
    21:00 +21°C° 0,1 mm 2 m/S 706 mmHg 51%
    22:00 +21°C° 0,1 mm 1 m/S 706 mmHg 54%
    23:00 +21°C° 0 mm 1 m/S 706 mmHg 56%

    29 September, Freitag

    Zeit Temperatur Niederschläge Wind Luftdruck Luftfeuchtigkeit
    00:00 +20°C° 0 mm 1 m/S 705 mmHg 58%
    01:00 +20°C° 0 mm 1 m/S 705 mmHg 60%
    02:00 +19°C° 0 mm 1 m/S 705 mmHg 61%
    03:00 +19°C° 0 mm 1 m/S 705 mmHg 63%
    04:00 +18°C° 0 mm 1 m/S 705 mmHg 65%
    05:00 +20°C° 0 mm 1 m/S 705 mmHg 60%
    06:00 +21°C° 0 mm 1 m/S 706 mmHg 56%
    07:00 +22°C° 0 mm 1 m/S 706 mmHg 52%
    08:00 +23°C° 0 mm 1 m/S 706 mmHg 46%
    09:00 +24°C° 0 mm 2 m/S 706 mmHg 39%
    10:00 +26°C° 0 mm 2 m/S 705 mmHg 33%
    11:00 +27°C° 0 mm 2 m/S 705 mmHg 30%
    12:00 +28°C° 0 mm 3 m/S 704 mmHg 26%
    13:00 +29°C° 0 mm 3 m/S 703 mmHg 23%
    14:00 +29°C° 0 mm 4 m/S 703 mmHg 22%
    15:00 +30°C° 0 mm 4 m/S 702 mmHg 20%
    16:00 +30°C° 0 mm 5 m/S 702 mmHg 19%
    17:00 +29°C° 0 mm 4 m/S 702 mmHg 21%
    18:00 +27°C° 0 mm 4 m/S 702 mmHg 23%
    19:00 +26°C° 0 mm 4 m/S 702 mmHg 25%
    20:00 +26°C° 0 mm 4 m/S 702 mmHg 26%
    21:00 +25°C° 0 mm 4 m/S 702 mmHg 27%
    22:00 +25°C° 0 mm 5 m/S 701 mmHg 28%
    23:00 +23°C° 0 mm 5 m/S 701 mmHg 28%

    30 September, Samstag

    Zeit Temperatur Niederschläge Wind Luftdruck Luftfeuchtigkeit
    00:00 +23°C° 0 mm 5 m/S 700 mmHg 28%
    01:00 +23°C° 0 mm 6 m/S 700 mmHg 28%
    02:00 +22°C° 0 mm 6 m/S 699 mmHg 28%
    03:00 +22°C° 0 mm 7 m/S 699 mmHg 27%
    04:00 +22°C° 0 mm 7 m/S 698 mmHg 26%
    05:00 +23°C° 0 mm 9 m/S 698 mmHg 23%
    06:00 +24°C° 0 mm 10 m/S 698 mmHg 19%
    07:00 +26°C° 0 mm 11 m/S 698 mmHg 15%
    08:00 +28°C° 0 mm 11 m/S 698 mmHg 14%
    09:00 +29°C° 0 mm 12 m/S 697 mmHg 12%
    10:00 +32°C° 0 mm 12 m/S 697 mmHg 10%
    11:00 +32°C° 0 mm 12 m/S 696 mmHg 10%
    12:00 +32°C° 0 mm 13 m/S 695 mmHg 11%
    13:00 +32°C° 0 mm 14 m/S 695 mmHg 11%
    14:00 +31°C° 0 mm 13 m/S 695 mmHg 13%
    15:00 +29°C° 0 mm 12 m/S 695 mmHg 15%
    16:00 +28°C° 0 mm 10 m/S 695 mmHg 17%
    17:00 +24°C° 0,3 mm 10 m/S 696 mmHg 28%
    18:00 +21°C° 0,3 mm 9 m/S 697 mmHg 40%
    19:00 +17°C° 0,3 mm 8 m/S 697 mmHg 52%
    20:00 +17°C° 0,1 mm 7 m/S 698 mmHg 54%
    21:00 +16°C° 0,1 mm 6 m/S 698 mmHg 56%
    22:00 +15°C° 0,1 mm 5 m/S 698 mmHg 58%
    23:00 +15°C° 0,1 mm 4 m/S 699 mmHg 60%

    1 Oktober, Sonntag

    Zeit Temperatur Niederschläge Wind Luftdruck Luftfeuchtigkeit
    00:00 +14°C° 0,1 mm 3 m/S 699 mmHg 61%
    01:00 +13°C° 0,1 mm 3 m/S 699 mmHg 62%
    02:00 +14°C° 0 mm 2 m/S 700 mmHg 64%
    03:00 +14°C° 0 mm 2 m/S 700 mmHg 65%
    04:00 +13°C° 0 mm 1 m/S 701 mmHg 66%
    05:00 +14°C° 0 mm 1 m/S 701 mmHg 60%
    06:00 +14°C° 0 mm 1 m/S 701 mmHg 53%
    07:00 +15°C° 0 mm 1 m/S 702 mmHg 47%
    08:00 +16°C° 0 mm 2 m/S 701 mmHg 39%
    09:00 +18°C° 0 mm 3 m/S 700 mmHg 32%
    10:00 +19°C° 0 mm 4 m/S 700 mmHg 25%
    11:00 +20°C° 0 mm 4 m/S 699 mmHg 22%
    12:00 +21°C° 0 mm 4 m/S 698 mmHg 20%
    13:00 +22°C° 0 mm 4 m/S 698 mmHg 17%
    14:00 +22°C° 0 mm 4 m/S 698 mmHg 16%
    15:00 +22°C° 0 mm 4 m/S 697 mmHg 15%
    16:00 +22°C° 0 mm 4 m/S 697 mmHg 14%
    17:00 +21°C° 0 mm 3 m/S 698 mmHg 15%
    18:00 +20°C° 0 mm 3 m/S 699 mmHg 16%
    19:00 +19°C° 0 mm 3 m/S 700 mmHg 17%
    20:00 +19°C° 0 mm 3 m/S 700 mmHg 20%
    21:00 +18°C° 0 mm 4 m/S 701 mmHg 23%
    22:00 +17°C° 0 mm 4 m/S 702 mmHg 27%
    23:00 +15°C° 0 mm 4 m/S 702 mmHg 35%
    Mehr zeigen